Hourly Weather Roundup
Issued by NWS Central Illinois

Home | Current Version | Previous Version | Text Only | Print | Product List | Glossary On
Versions: 1 2 3 4 5 6 7 8 9 10 11 12 13 14 15 16 17 18 19 20 21 22 23 24 25 26 27 28 29 30 31 32 33 34 35 36 37 38 39 40 41 42 43 44 45 46 47 48 49 50
000
NZUS43 KILX 042210
HWRILX

AREA WEATHER ROUNDUP
NATIONAL WEATHER SERVICE, LINCOLN IL
500 PM CDT FRI SEP 04 2015


CITY           SKY/WX    TMP DP  RH WIND       PRES   REMARKS
BLOOMINGTON    PTSUNNY   94  69  43 W8        30.00S HX  99
CHAMPAIGN      MOSUNNY   93  66  40 SW3       30.00R HX  96
DANVILLE       MOSUNNY   90  70  51 W6        29.97F HX  95
DECATUR        MOSUNNY   93  65  39 S10       29.98F HX  95
EFFINGHAM      PTSUNNY   91  62  38 SW8       30.01S HX  91
FLORA          SUNNY     93  64  38 S6        30.00S HX  95
GALESBURG      MOSUNNY   90  69  48 S6        29.97F HX  94
JACKSONVILLE   MOSUNNY   94  66  40 S6        29.98S HX  97
LACON          MOSUNNY   91  70  49 CALM      29.97S HX  96
LAWRENCEVILLE  SUNNY     94  65  38 SW8       30.00R HX  96
LITCHFIELD     SUNNY     91  65  42 W6        30.00S HX  93
$$


CITY           SKY/WX    TMP DP  RH WIND       PRES   REMARKS
LINCOLN        PTSUNNY   94  64  35 S5        29.96S HX  96
MACOMB         SUNNY     93  64  37 SW6       29.99F HX  94
MATTOON        MOSUNNY   92  66  42 S5        29.99S HX  94
MT CARMEL AP   SUNNY     91  63  38 CALM      30.00R HX  92
OLNEY-NOBLE AP SUNNY     90  68  48 S7        30.00S HX  93
PARIS          FAIR      90  67  46 SW6       30.00F HX  94
PEORIA         SUNNY     95  67  39 NW6       29.97S HX  99
PONTIAC        SUNNY     92  72  51 W5        29.99S HX  99
RANTOUL        NOT AVBL
ROBINSON       SUNNY     92  66  42 S6        30.01R HX  95
SPRINGFIELD    SUNNY     94  66  39 SW6       29.98S HX  97
TAYLORVILLE    SUNNY     91  66  43 SW6       29.99S HX  94
$$

...REGIONAL REPORTS...


CITY           SKY/WX    TMP DP  RH WIND       PRES   REMARKS
CHICAGO O`HARE PTSUNNY   80  67  64 E8        30.01R HX  82
KANKAKEE       PTSUNNY   82  70  67 S14       30.00R HX  85
MOLINE         MOSUNNY   92  67  43 S8        29.95F HX  95
MOUNT STERLING SUNNY     91  67  45 S3        29.98S HX  94
MOUNT VERNON   SUNNY     93  66  40 S6        30.01S HX  96
PITTSFIELD     MOSUNNY   93  66  41 S8        29.99F HX  95
QUINCY         MOSUNNY   91  67  44 VRB6      29.97S HX  94
ROCKFORD       MOSUNNY   90  70  51 NW6       30.00S HX  95
$$


CITY           SKY/WX    TMP DP  RH WIND       PRES   REMARKS
BURLINGTON     SUNNY     92  68  45 S8        29.96F HX  96
CEDAR RAPIDS   MOSUNNY   88  72  58 SE7       29.96S HX  94
DES MOINES     PTSUNNY   89  68  49 S13       29.93S HX  93
KIRKSVILLE     PTSUNNY   90  68  48 S9        29.98S HX  94
OTTUMWA        PTSUNNY   89  71  55 S9        29.94S HX  95
ST LOUIS       MOSUNNY   92  66  42 S5        29.99S HX  94
$$


CITY           SKY/WX    TMP DP  RH WIND       PRES   REMARKS
TERRE HAUTE    PTSUNNY   93  66  40 SW8G21    29.99F HX  96
EVANSVILLE     SUNNY     94  61  33 W6        30.00S HX  94
INDIANAPOLIS   PTSUNNY   89  66  46 SW7       30.00R HX  91
LAFAYETTE      CLOUDY    81  65  58 E5        29.99F HX  83
MADISON        MOSUNNY   83  71  67 NE7       29.99F HX  87
MILWAUKEE      PTSUNNY   71  65  81 E9        30.04R
$$




USA.gov is the U.S. government's official web portal to all federal, state and local government web resources and services.